Location: Les Thiberg�res
(47.8554°N, 1.0978°W)
Time: 04:51:55
(UTC+00:00)

Cosmos 2221 - Pass Details

Date: 17 February 2020
Orbit: 593 x 615 km, 82.5° (Epoch: 29 March)

Event Time Altitude Azimuth Distance (km) Brightness Sun altitude
Rises 05:52:08 0° 207° (SSW) 2,823 5.7 -13.4°
Reaches altitude 10° 05:54:26 10° 215° (SW) 1,928 4.8 -13.0°
Maximum altitude 05:58:27 39° 285° (WNW) 898 2.9 -12.3°
Drops below altitude 10° 06:02:31 10° 356° (N) 1,953 5.0 -11.6°
Sets 06:04:52 0° 4° (N) 2,865 6.0 -11.2°
